This is the latest recevied weather packets stored in our database for station/object WW5JC. If no packets are shown the sender has not sent any weather packets the latest 10 day(s).
| Time | Temp. | Humidity | Pressure | Rain* | Wind** | Luminosity | Snow |
|---|---|---|---|---|---|---|---|
| 1777899432 | 16.11° C | 80% | 1015.7 hPa | 0 mm | - | 105 W/m² | - |
| 1777899130 | 16.11° C | 82% | 1015.6 hPa | 0 mm | - | 91 W/m² | - |
| 1777898827 | 15.56° C | 82% | 1015.6 hPa | 0 mm | - | 80 W/m² | - |
| 1777898525 | 15.56° C | 82% | 1015.6 hPa | 0 mm | - | 71 W/m² | - |
| 1777898222 | 15.56° C | 82% | 1015.5 hPa | 0 mm | - | 62 W/m² | - |
| 1777897919 | 15.56° C | 83% | 1015.5 hPa | 0 mm | - | 55 W/m² | - |
| 1777897615 | 15° C | 83% | 1015.3 hPa | 0 mm | - | 48 W/m² | - |
| 1777897310 | 15° C | 84% | 1015.2 hPa | 0 mm | - | 41 W/m² | - |
| 1777897007 | 15° C | 84% | 1015.5 hPa | 0 mm | - | 35 W/m² | - |
| 1777896704 | 14.44° C | 84% | 1015.3 hPa | 0 mm | - | 25 W/m² | - |
| 1777896401 | 14.44° C | 85% | 1015.4 hPa | 0 mm | - | 21 W/m² | - |
| 1777896099 | 14.44° C | 85% | 1015.3 hPa | 0 mm | - | 19 W/m² | - |
| 1777895797 | 14.44° C | 85% | 1015.4 hPa | 0 mm | - | 16 W/m² | - |
| 1777895493 | 14.44° C | 85% | 1015.4 hPa | 0 mm | - | 13 W/m² | - |
| 1777895191 | 14.44° C | 85% | 1015.4 hPa | 0 mm | - | 10 W/m² | - |
| 1777894888 | 14.44° C | 85% | 1015.4 hPa | 0 mm | - | 7 W/m² | - |
| 1777894586 | 14.44° C | 84% | 1015.2 hPa | 0 mm | - | 4 W/m² | - |
| 1777894283 | 14.44° C | 84% | 1015.2 hPa | 0 mm | - | 3 W/m² | - |
| 1777893980 | 14.44° C | 84% | 1015.3 hPa | 0 mm | - | 1 W/m² | - |
| 1777893676 | 14.44° C | 84% | 1015.2 hPa | 0 mm | - | 1 W/m² | - |
| 1777893372 | 14.44° C | 84% | 1015.4 hPa | 0 mm | - | 0 W/m² | - |
| 1777893068 | 14.44° C | 84% | 1015.5 hPa | 0 mm | - | 0 W/m² | - |
| 1777892766 | 14.44° C | 84% | 1015.3 hPa | 0 mm | - | 0 W/m² | - |
| 1777892462 | 13.89° C | 84% | 1015.3 hPa | 0 mm | - | 0 W/m² | - |
| 1777892158 | 13.89° C | 84% | 1015.3 hPa | 0 mm | - | 0 W/m² | - |
* Rain latest hour (hover to see other rain measurements)
** Current wind speed in m/s (hover to see current wind gust speed)